Weather History for Omaha, NE

Change the Weather History Date:

Monday, February 18, 2013

  Actual Average Record
Temperature  
Mean Temperature 33 °F 29 °F  
Max Temperature 44 °F 39 °F 70 °F (1930)
Min Temperature 21 °F 19 °F -15 °F (1903)
Degree Days  
Heating Degree Days 32 36  
Month to date heating degree days 587 692  
Since 1 July heating degree days 4077 4457  
Cooling Degree Days 0 0  
Month to date cooling degree days 0 0  
Year to date cooling degree days 0 0  
Moisture  
Dew Point 23 °F    
Average Humidity 68    
Maximum Humidity 82    
Minimum Humidity 53    
Precipitation  
Precipitation 0.01 in 0.03 in 0.68 in (1908)
Month to date precipitation 0.12 0.50  
Year to date precipitation 0.62 1.22  
Snow  
Snow T in 0.30 in - ()
Month to date snowfall 0.9 4.2  
Since 1 July snowfall 13.0 19.3  
Snow Depth 0.00 in    
Sea Level Pressure  
Sea Level Pressure 29.82 in    
Wind  
Wind Speed 18 mph (NNW)    
Max Wind Speed 35 mph    
Max Gust Speed 44 mph    
Visibility 9 miles    
Events Snow    
T = Trace of Precipitation, MM = Missing Value Source: NWS Daily Summary

Daily Weather History Graph

Daily Weather History Graph

Search for Another Location

Airport:

Trip Planner

Search our weather history database for the weather conditions in past years. The results will help you decide how hot, cold, wet, or windy it might be!

Date:

Astronomy

Feb. 18, 2013 Rise Set
Actual Time 7:13 AM CST 6:01 PM CST
Civil Twilight 6:45 AM CST 6:29 PM CST
Nautical Twilight 6:13 AM CST 7:02 PM CST
Astronomical Twilight 5:41 AM CST 7:34 PM CST
Moon 11:46 AM CST (2/18) 1:56 AM CST (2/18)
Length of Visible Light 11h 44m
Length of Day
10h 47m
First Quarter, 58% of the Moon is Illuminated
Feb 18
First Quarter
Feb 25
Full
Mar 4
Last Quarter
Mar 11
New
Mar 19
First Quarter

Hourly Weather History & Observations

Time (CST) Temp. Windchill Dew Point Humidity Pressure Visibility Wind Dir Wind Speed Gust Speed Precip Events Conditions
12:52 AM 42.1 °F 36.1 °F 30.9 °F 65% 29.57 in 10.0 mi SSE 10.4 mph - N/A   Scattered Clouds
1:52 AM 42.1 °F 34.5 °F 30.9 °F 65% 29.60 in 10.0 mi NW 15.0 mph 26.5 mph N/A   Scattered Clouds
2:52 AM 34.0 °F - 28.0 °F 79% 29.58 in 10.0 mi Calm Calm - N/A   Scattered Clouds
3:52 AM 34.0 °F 27.2 °F 28.9 °F 82% 29.58 in 10.0 mi North 8.1 mph - N/A   Scattered Clouds
4:52 AM 34.0 °F 27.2 °F 28.9 °F 82% 29.59 in 10.0 mi North 8.1 mph - N/A   Mostly Cloudy
5:52 AM 35.1 °F 27.9 °F 30.0 °F 82% 29.60 in 10.0 mi North 9.2 mph - N/A   Mostly Cloudy
6:52 AM 36.0 °F 28.0 °F 30.0 °F 79% 29.65 in 10.0 mi North 11.5 mph - N/A   Mostly Cloudy
7:52 AM 35.6 °F 28.6 °F 30.2 °F 81% 29.66 in 10.0 mi North 9.2 mph - N/A   Mostly Cloudy
8:06 AM 35.6 °F 28.6 °F 30.2 °F 81% 29.67 in 10.0 mi North 9.2 mph - N/A   Overcast
8:52 AM 37.0 °F 29.8 °F 30.9 °F 79% 29.70 in 10.0 mi NNW 10.4 mph - N/A   Overcast
9:52 AM 37.9 °F 29.2 °F 30.0 °F 73% 29.72 in 10.0 mi NNW 15.0 mph 24.2 mph N/A   Overcast
10:45 AM 35.6 °F 23.4 °F 28.4 °F 75% 29.74 in 1.0 mi NNW 25.3 mph 34.5 mph 0.00 in Snow Light Snow
10:52 AM 34.0 °F 22.4 °F 30.0 °F 85% 29.77 in 0.8 mi NNW 20.7 mph 33.4 mph 0.00 in Snow Light Snow
11:05 AM 33.8 °F 23.2 °F 30.2 °F 87% 29.76 in 0.8 mi NNW 17.3 mph - 0.00 in Snow Light Snow
11:25 AM 32.0 °F 21.2 °F 28.4 °F 87% 29.78 in 1.0 mi North 16.1 mph - 0.01 in Snow Light Snow
11:34 AM 32.0 °F 20.1 °F 26.6 °F 80% 29.78 in 5.0 mi NNW 19.6 mph 25.3 mph 0.01 in Snow Light Snow
11:52 AM 32.0 °F 18.9 °F 25.0 °F 75% 29.82 in 10.0 mi NNW 24.2 mph 31.1 mph 0.01 in   Overcast
12:52 PM 32.0 °F 19.2 °F 24.1 °F 73% 29.83 in 10.0 mi NNW 23.0 mph 31.1 mph N/A   Overcast
1:52 PM 30.9 °F 16.7 °F 19.9 °F 64% 29.85 in 10.0 mi NW 27.6 mph 38.0 mph N/A   Overcast
2:37 PM 30.2 °F 14.7 °F 19.4 °F 64% 29.85 in 10.0 mi NNW 32.2 mph 39.1 mph N/A   Mostly Cloudy
2:52 PM 30.9 °F 16.4 °F 19.0 °F 61% 29.88 in 10.0 mi NNW 28.8 mph 38.0 mph N/A   Mostly Cloudy
3:52 PM 30.0 °F 14.2 °F 15.1 °F 54% 29.90 in 10.0 mi NW 33.4 mph 41.4 mph N/A   Mostly Cloudy
4:52 PM 30.0 °F 15.4 °F 15.1 °F 54% 29.92 in 10.0 mi NW 27.6 mph 34.5 mph N/A   Scattered Clouds
5:52 PM 28.0 °F 12.0 °F 15.1 °F 58% 29.96 in 10.0 mi NW 31.1 mph 39.1 mph N/A   Partly Cloudy
6:52 PM 26.6 °F 12.4 °F 14.0 °F 59% 29.96 in 10.0 mi NW 21.9 mph 27.6 mph N/A   Clear
7:52 PM 24.1 °F 7.7 °F 12.0 °F 60% 30.02 in 10.0 mi NNW 26.5 mph 36.8 mph N/A   Clear
8:52 PM 21.9 °F 7.8 °F 10.9 °F 63% 30.04 in 10.0 mi NNW 17.3 mph 28.8 mph N/A   Clear
9:52 PM 21.0 °F 8.6 °F 12.0 °F 68% 30.06 in 10.0 mi NNW 12.7 mph - N/A   Clear
10:52 PM 21.9 °F 7.8 °F 12.0 °F 66% 30.09 in 10.0 mi NW 17.3 mph 26.5 mph N/A   Mostly Cloudy
11:20 PM 21.2 °F 6.8 °F 12.2 °F 68% 30.06 in 10.0 mi NNW 17.3 mph - N/A   Overcast
11:52 PM 21.0 °F 5.0 °F 12.9 °F 71% 30.10 in 9.0 mi NNW 21.9 mph 28.8 mph 0.00 in Snow Light Snow